CST,Max TemperatureF,Mean TemperatureF,Min TemperatureF,Max Dew PointF,MeanDew PointF,Min DewpointF,Max Humidity, Mean Humidity, Min Humidity, Max Sea Level PressureIn, Mean Sea Level PressureIn, Min Sea Level PressureIn, Max VisibilityMiles, Mean VisibilityMiles, Min VisibilityMiles, Max Wind SpeedMPH, Mean Wind SpeedMPH, Max Gust SpeedMPH,PrecipitationIn, CloudCover, Events, WindDirDegrees
2014-1-1,3,-7,-17,-6,-10,-17,87,72,55,30.54,30.46,30.29,10,7,2,10,4,13,0.01,7,Snow,39
2014-1-2,3,-8,-19,-3,-13,-21,83,73,58,30.62,30.47,30.21,10,10,2,21,6,28,0.00,4,,157
2014-1-3,40,22,3,31,16,-2,88,81,74,30.17,29.68,29.44,10,8,4,25,13,33,0.04,5,Rain,174
2014-1-4,39,18,-4,28,3,-13,81,70,58,30.45,30.09,29.54,10,9,2,43,18,54,T,5,Snow,340
2014-1-5,-2,-8,-15,-11,-18,-24,79,68,56,30.67,30.54,30.45,10,6,0,35,16,40,T,5,Snow,325
2014-1-6,-5,-12,-19,-13,-20,-25,72,65,57,30.58,30.48,30.27,10,9,2,24,11,26,T,2,Snow,294
2014-1-7,9,2,-5,-1,-4,-11,79,71,63,30.35,30.24,30.15,10,10,6,9,3,15,T,8,Snow,100
2014-1-8,16,5,-7,8,0,-9,90,79,67,30.50,30.39,30.25,10,10,7,18,7,25,T,6,Snow,137
2014-1-9,31,24,16,22,16,9,84,76,67,30.21,29.93,29.69,10,8,5,23,17,31,0.00,4,,168
2014-1-10,37,29,20,27,22,15,88,76,64,29.68,29.61,29.56,10,8,4,17,8,22,0.00,1,,223
2014-1-11,35,25,15,24,20,13,92,76,59,29.83,29.69,29.42,10,10,7,21,9,31,0.00,3,,253
2014-1-12,41,35,28,31,28,25,85,73,60,29.68,29.48,29.32,10,10,10,30,10,36,0.00,0,,271
2014-1-13,40,30,19,32,24,16,91,78,64,29.80,29.68,29.52,10,10,9,32,11,37,0.00,4,,260
2014-1-14,36,20,4,30,15,-1,82,72,62,30.33,30.09,29.65,10,10,6,44,22,52,T,5,Snow,330
2014-1-15,41,22,2,30,15,-2,87,73,59,30.30,29.92,29.65,10,10,10,28,12,35,T,4,,227
2014-1-16,38,24,10,27,13,-1,80,70,59,30.23,29.91,29.65,10,6,0,47,30,62,0.05,6,Fog-Snow,333
2014-1-17,32,17,1,24,10,-2,87,74,61,30.24,30.05,29.65,10,10,10,22,8,26,0.00,2,,183
2014-1-18,38,29,20,30,22,14,88,79,70,30.09,29.89,29.61,10,10,5,46,20,58,0.01,6,Snow,308
2014-1-19,47,37,27,30,27,21,81,63,45,29.85,29.73,29.64,10,10,10,28,15,37,0.00,0,,277
2014-1-20,36,15,-6,30,10,-14,92,79,66,30.66,30.21,29.87,10,6,0,38,17,46,T,5,Fog-Snow,340
2014-1-21,25,9,-8,18,0,-14,81,69,56,30.64,30.26,29.98,10,10,2,31,10,39,T,7,Snow,183
2014-1-22,18,6,-7,10,-2,-14,84,73,62,30.80,30.38,30.07,10,7,1,33,15,39,T,5,Snow,347
2014-1-23,17,3,-11,2,-8,-16,79,61,42,30.90,30.67,30.16,10,10,10,16,10,23,0.00,0,,243
2014-1-24,44,30,15,34,26,5,92,70,47,30.08,29.83,29.67,10,10,10,32,16,41,0.04,7,Rain,298
2014-1-25,44,29,14,32,17,5,85,64,42,30.09,29.86,29.45,10,10,4,30,11,38,0.01,5,Snow,348
2014-1-26,41,20,-2,30,10,-13,82,68,53,30.41,29.83,29.44,10,6,0,44,23,56,0.01,7,Fog-Snow,345
2014-1-27,3,-3,-9,-10,-14,-18,75,66,56,30.61,30.52,30.33,10,10,7,24,10,31,0.00,2,,322
2014-1-28,11,1,-10,-4,-9,-16,79,63,46,30.52,30.39,30.17,10,10,10,16,6,21,0.00,0,,284
2014-1-29,44,22,0,21,9,-5,79,58,36,30.15,29.76,29.43,10,10,10,24,9,30,0.00,1,,176
2014-1-30,27,14,1,19,6,-4,81,71,61,30.17,29.82,29.43,10,7,1,29,14,35,0.02,6,Snow,352
2014-1-31,23,11,-1,14,3,-6,87,71,54,30.18,30.05,29.89,10,10,10,16,7,21,0.00,2,,188